Weather History for Kelso-Longview, WA

Change the Weather History Date:

Monday, November 18, 2013

  Actual Average Record
Temperature  
Mean Temperature 52 °F -  
Max Temperature 53 °F 48 °F 59 °F (2001)
Min Temperature 50 °F 38 °F 21 °F (2000)
Degree Days  
Heating Degree Days 14    
Growing Degree Days 2 (Base 50)    
Moisture  
Dew Point 44 °F    
Average Humidity 76    
Maximum Humidity 82    
Minimum Humidity 71    
Precipitation  
Precipitation 0.23 in - - ()
Sea Level Pressure  
Sea Level Pressure 29.84 in    
Wind  
Wind Speed 13 mph (SSE)    
Max Wind Speed 21 mph    
Max Gust Speed 34 mph    
Visibility 10 miles    
Events      
Averages and records for this station are not official NWS values.
T = Trace of Precipitation, MM = Missing Value Source: NWS Daily Summary

Daily Weather History Graph

Daily Weather History Graph

Search for Another Location

Airport:

Trip Planner

Search our weather history database for the weather conditions in past years. The results will help you decide how hot, cold, wet, or windy it might be!

Date:

Astronomy

Nov. 18, 2013 Rise Set
Actual Time 7:17 AM PST 4:36 PM PST
Civil Twilight 6:44 AM PST 5:09 PM PST
Nautical Twilight 6:07 AM PST 5:45 PM PST
Astronomical Twilight 5:32 AM PST 6:21 PM PST
Moon 5:41 PM PST (11/18) 8:11 AM PST (11/18)
Length of Visible Light 10h 24m
Length of Day
9h 19m
Full, 99% of the Moon is Illuminated
Nov 18
Full
Nov 25
Last Quarter
Dec 2
New
Dec 9
First Quarter
Dec 17
Full

Hourly Weather History & Observations

Time (PST) Temp. Dew Point Humidity Pressure Visibility Wind Dir Wind Speed Gust Speed Precip Events Conditions
12:15 AM 50.0 °F 44.6 °F 82% 29.97 in 10.0 mi SSE 11.5 mph 18.4 mph N/A   Overcast
12:35 AM 50.0 °F 44.6 °F 82% 29.97 in 10.0 mi SSE 11.5 mph 16.1 mph N/A   Overcast
12:55 AM 50.0 °F 44.6 °F 82% 29.96 in 10.0 mi SSE 10.4 mph - N/A   Overcast
1:15 AM 50.0 °F 44.6 °F 82% 29.96 in 10.0 mi SSE 11.5 mph 17.3 mph N/A   Overcast
1:35 AM 50.0 °F 44.6 °F 82% 29.96 in 10.0 mi SSE 13.8 mph 19.6 mph N/A   Overcast
1:55 AM 51.8 °F 44.6 °F 76% 29.96 in 10.0 mi SSE 11.5 mph 18.4 mph N/A   Overcast
2:15 AM 51.8 °F 44.6 °F 76% 29.96 in 10.0 mi SSE 11.5 mph 18.4 mph N/A   Overcast
2:35 AM 50.0 °F 44.6 °F 82% 29.96 in 10.0 mi SE 11.5 mph 18.4 mph N/A   Overcast
2:55 AM 51.8 °F 42.8 °F 71% 29.95 in 10.0 mi SSE 11.5 mph - N/A   Overcast
3:15 AM 51.8 °F 42.8 °F 71% 29.95 in 10.0 mi SSE 12.7 mph 19.6 mph N/A   Overcast
3:35 AM 51.8 °F 42.8 °F 71% 29.94 in 10.0 mi North - - N/A   Overcast
3:55 AM 51.8 °F 42.8 °F 71% 29.94 in 10.0 mi North - - N/A   Overcast
4:15 AM 51.8 °F 42.8 °F 71% 29.94 in 10.0 mi SSE 12.7 mph 18.4 mph N/A   Overcast
4:35 AM 51.8 °F 42.8 °F 71% 29.94 in 10.0 mi North - - N/A   Overcast
4:55 AM 51.8 °F 42.8 °F 71% 29.93 in 10.0 mi SSE 10.4 mph 20.7 mph N/A   Overcast
5:15 AM 51.8 °F 42.8 °F 71% 29.93 in 10.0 mi SSE 11.5 mph - N/A   Overcast
5:35 AM 51.8 °F 42.8 °F 71% 29.92 in 10.0 mi North - - N/A   Overcast
5:55 AM 51.8 °F 42.8 °F 71% 29.92 in 10.0 mi North - - N/A   Overcast
6:15 AM 51.8 °F 42.8 °F 71% 29.92 in 10.0 mi North - - N/A   Overcast
6:35 AM 51.8 °F 42.8 °F 71% 29.92 in 10.0 mi North - - N/A   Overcast
6:55 AM 51.8 °F 42.8 °F 71% 29.92 in 10.0 mi SSE 12.7 mph 19.6 mph N/A   Overcast
7:15 AM 51.8 °F 42.8 °F 71% 29.92 in 10.0 mi SSE 15.0 mph 25.3 mph N/A   Overcast
7:35 AM 51.8 °F 42.8 °F 71% 29.92 in 10.0 mi SE 16.1 mph 21.9 mph N/A   Overcast
7:55 AM 51.8 °F 42.8 °F 71% 29.92 in 10.0 mi SSE 12.7 mph 23.0 mph N/A   Overcast
8:15 AM 51.8 °F 42.8 °F 71% 29.91 in 10.0 mi SSE 16.1 mph 20.7 mph N/A   Overcast
8:35 AM 51.8 °F 42.8 °F 71% 29.91 in 10.0 mi SSE 17.3 mph 25.3 mph N/A   Overcast
8:55 AM 51.8 °F 42.8 °F 71% 29.91 in 10.0 mi SE 11.5 mph 21.9 mph N/A   Overcast
9:15 AM 51.8 °F 42.8 °F 71% 29.91 in 10.0 mi SE 12.7 mph 18.4 mph N/A   Overcast
9:35 AM 51.8 °F 42.8 °F 71% 29.91 in 10.0 mi SE 10.4 mph 19.6 mph N/A   Overcast
9:55 AM 51.8 °F 42.8 °F 71% 29.91 in 10.0 mi SE 12.7 mph 19.6 mph N/A   Overcast
10:15 AM 51.8 °F 42.8 °F 71% 29.90 in 10.0 mi SE 11.5 mph 24.2 mph N/A   Overcast
10:35 AM 51.8 °F 42.8 °F 71% 29.90 in 10.0 mi SSE 12.7 mph 18.4 mph N/A   Overcast
10:55 AM 51.8 °F 42.8 °F 71% 29.90 in 10.0 mi SSE 11.5 mph 21.9 mph N/A   Overcast
11:15 AM 51.8 °F 44.6 °F 76% 29.89 in 10.0 mi SE 10.4 mph 17.3 mph 0.01 in   Overcast
11:35 AM 51.8 °F 44.6 °F 76% 29.89 in 10.0 mi SSE 15.0 mph 21.9 mph 0.01 in   Overcast
11:55 AM 50.0 °F 44.6 °F 82% 29.88 in 10.0 mi SSE 11.5 mph 19.6 mph 0.02 in   Overcast
12:15 PM 50.0 °F 44.6 °F 82% 29.87 in 10.0 mi SSE 15.0 mph 21.9 mph 0.02 in   Overcast
12:35 PM 50.0 °F 44.6 °F 82% 29.86 in 10.0 mi SE 12.7 mph 18.4 mph 0.03 in   Overcast
12:55 PM 51.8 °F 44.6 °F 76% 29.85 in 10.0 mi SSE 13.8 mph 19.6 mph 0.03 in   Overcast
1:15 PM 51.8 °F 44.6 °F 76% 29.84 in 10.0 mi SSE 11.5 mph 20.7 mph N/A   Overcast
1:35 PM 51.8 °F 44.6 °F 76% 29.82 in 10.0 mi SE 10.4 mph 19.6 mph N/A   Overcast
1:55 PM 51.8 °F 44.6 °F 76% 29.81 in 10.0 mi SSE 11.5 mph 19.6 mph N/A   Overcast
2:15 PM 51.8 °F 44.6 °F 76% 29.81 in 10.0 mi SSE 12.7 mph 21.9 mph N/A   Overcast
2:35 PM 51.8 °F 44.6 °F 76% 29.80 in 10.0 mi SE 12.7 mph 24.2 mph N/A   Overcast
2:55 PM 51.8 °F 44.6 °F 76% 29.79 in 10.0 mi SSE 15.0 mph 23.0 mph 0.01 in   Overcast
3:15 PM 51.8 °F 44.6 °F 76% 29.79 in 10.0 mi SSE 16.1 mph 23.0 mph N/A   Overcast
3:35 PM 51.8 °F 44.6 °F 76% 29.77 in 10.0 mi SE 17.3 mph 23.0 mph 0.01 in   Overcast
3:55 PM 51.8 °F 44.6 °F 76% 29.77 in 10.0 mi SSE 18.4 mph 25.3 mph 0.01 in   Overcast
4:15 PM 51.8 °F 44.6 °F 76% 29.76 in 10.0 mi SSE 15.0 mph 26.5 mph N/A   Overcast
4:35 PM 51.8 °F 44.6 °F 76% 29.75 in 10.0 mi SE 18.4 mph 26.5 mph N/A   Overcast
4:55 PM 51.8 °F 44.6 °F 76% 29.74 in 10.0 mi SE 16.1 mph 31.1 mph N/A   Overcast
5:15 PM 51.8 °F 44.6 °F 76% 29.73 in 10.0 mi SE 15.0 mph 27.6 mph N/A   Overcast
5:35 PM 51.8 °F 44.6 °F 76% 29.73 in 10.0 mi SSE 19.6 mph 31.1 mph 0.02 in   Overcast
5:55 PM 51.8 °F 44.6 °F 76% 29.72 in 9.0 mi SE 19.6 mph 33.4 mph 0.04 in   Overcast
6:15 PM 51.8 °F 46.4 °F 82% 29.71 in 10.0 mi SSE 17.3 mph 28.8 mph 0.01 in   Overcast
6:35 PM 51.8 °F 46.4 °F 82% 29.70 in 9.0 mi SSE 19.6 mph 27.6 mph 0.07 in   Overcast
6:55 PM 51.8 °F 46.4 °F 82% 29.69 in 10.0 mi SSE 20.7 mph 28.8 mph 0.09 in   Overcast
7:15 PM 51.8 °F 46.4 °F 82% 29.69 in 10.0 mi SSE 19.6 mph 32.2 mph N/A   Overcast
7:35 PM 51.8 °F 46.4 °F 82% 29.69 in 9.0 mi SSE 20.7 mph 33.4 mph 0.01 in   Overcast
7:55 PM 51.8 °F 46.4 °F 82% 29.69 in 10.0 mi SSE 17.3 mph 29.9 mph 0.03 in   Overcast
8:15 PM 51.8 °F 46.4 °F 82% 29.69 in 10.0 mi SE 19.6 mph 34.5 mph N/A   Overcast
8:35 PM 51.8 °F 46.4 °F 82% 29.70 in 10.0 mi SE 17.3 mph 26.5 mph N/A   Overcast
8:55 PM 51.8 °F 46.4 °F 82% 29.70 in 10.0 mi SSE 17.3 mph 28.8 mph N/A   Overcast
9:15 PM 51.8 °F 46.4 °F 82% 29.70 in 10.0 mi SSE 16.1 mph 25.3 mph N/A   Overcast
9:35 PM 51.8 °F 46.4 °F 82% 29.70 in 10.0 mi North - - N/A   Overcast
9:55 PM 51.8 °F 46.4 °F 82% 29.71 in 10.0 mi North - - N/A   Overcast
10:15 PM 51.8 °F 46.4 °F 82% 29.71 in 10.0 mi North - - N/A   Overcast
10:35 PM 51.8 °F 46.4 °F 82% 29.70 in 10.0 mi North - - N/A   Overcast
10:55 PM 51.8 °F 46.4 °F 82% 29.70 in 10.0 mi North - - N/A   Overcast
11:15 PM 53.6 °F 46.4 °F 77% 29.70 in 10.0 mi North - - N/A   Overcast
11:35 PM 53.6 °F 46.4 °F 77% 29.70 in 10.0 mi North - - N/A   Overcast
11:55 PM 53.6 °F 46.4 °F 77% 29.71 in 10.0 mi North - - N/A   Overcast